GW3182 Weather Reports


Display with metric or nautical units.
time (UTC)temp
F
wind
direction
speed
MPH
gust
MPH
rain 1hr
in
rain 24hr
in
rain mn
in
humidity
%
barometer
mb
20260504050445 47 248 3.0 3.0 0.00 0.00 0.00 47 1010.6
20260504045942 47 254 5.0 6.0 0.00 0.00 0.00 47 1010.6
20260504045437 47 248 3.0 5.0 0.00 0.00 0.00 47 1010.6
20260504044934 47 230 3.0 3.0 0.00 0.00 0.00 46 1010.6
20260504044432 47 242 4.0 5.0 0.00 0.00 0.00 46 1010.6
20260504043929 48 205 3.0 3.0 0.00 0.00 0.00 46 1010.6
20260504043426 48 200 3.0 3.0 0.00 0.00 0.00 46 1010.6
20260504042923 48 197 3.0 2.0 0.00 0.00 0.00 46 1010.2
20260504042420 48 222 2.0 2.0 0.00 0.00 0.00 46 1010.6
20260504041916 48 232 4.0 5.0 0.00 0.00 0.00 45 1010.6
20260504041412 49 221 4.0 5.0 0.00 0.00 0.00 44 1010.6
20260504040909 49 222 3.0 3.0 0.00 0.00 0.00 44 1010.6
20260504040407 49 227 4.0 6.0 0.00 0.00 0.00 44 1010.6
20260504035902 49 239 3.0 3.0 0.00 0.00 0.00 43 1010.6
20260504035400 49 259 3.0 3.0 0.00 0.00 0.00 43 1010.6
20260504034856 49 225 3.0 3.0 0.00 0.00 0.00 43 1010.6
20260504034354 49 232 3.0 2.0 0.00 0.00 0.00 43 1011.0
20260504033850 49 230 3.0 2.0 0.00 0.00 0.00 44 1010.6
20260504033349 49 239 3.0 3.0 0.00 0.00 0.00 44 1010.6
20260504032845 49 230 3.0 3.0 0.00 0.00 0.00 44 1010.6
20260504032342 49 215 3.0 3.0 0.00 0.00 0.00 43 1010.6
20260504031839 49 229 2.0 2.0 0.00 0.00 0.00 44 1011.0
20260504031336 49 245 4.0 3.0 0.00 0.00 0.00 43 1011.3
20260504030832 49 233 4.0 6.0 0.00 0.00 0.00 44 1011.3
20260504030330 50 242 2.0 2.0 0.00 0.00 0.00 43 1011.0
20260504025826 49 257 5.0 6.0 0.00 0.00 0.00 43 1010.6
20260504025323 49 239 3.0 3.0 0.00 0.00 0.00 44 1011.0
20260504024820 49 232 4.0 6.0 0.00 0.00 0.00 44 1011.0
20260504024316 49 225 4.0 5.0 0.00 0.00 0.00 44 1011.0
20260504023813 49 269 4.0 3.0 0.00 0.00 0.00 44 1011.0
20260504023309 49 252 4.0 5.0 0.00 0.00 0.00 45 1011.3
20260504022805 49 236 3.0 3.0 0.00 0.00 0.00 45 1011.0
20260504022304 49 231 2.0 2.0 0.00 0.00 0.00 45 1011.3
20260504021758 49 234 4.0 3.0 0.00 0.00 0.00 45 1011.0
20260504021256 49 251 3.0 3.0 0.00 0.00 0.00 47 1011.0
20260504020753 49 217 3.0 5.0 0.00 0.00 0.00 46 1011.0
20260504020249 49 252 3.0 2.0 0.00 0.00 0.00 46 1011.3
20260504015745 49 260 5.0 6.0 0.00 0.00 0.00 46 1011.3
20260504015242 49 252 5.0 7.0 0.00 0.00 0.00 47 1011.3
20260504014738 49 280 5.0 8.0 0.00 0.00 0.00 47 1011.3
20260504014235 49 256 3.0 3.0 0.00 0.00 0.00 47 1011.3
20260504013732 48 230 5.0 6.0 0.00 0.00 0.00 48 1011.7
20260504013230 49 233 6.0 7.0 0.00 0.00 0.00 50 1011.3
20260504012726 50 247 10.0 15.0 0.00 0.00 0.00 45 1011.3
20260504012224 50 341 5.0 6.0 0.00 0.00 0.00 43 1011.0
20260504011721 50 274 3.0 5.0 0.00 0.00 0.00 44 1011.0
20260504011218 50 231 8.0 9.0 0.00 0.00 0.00 43 1011.0
20260504010714 49 244 6.0 8.0 0.00 0.00 0.00 46 1011.0
20260504010210 49 231 5.0 6.0 0.00 0.00 0.00 47 1011.0
20260504005706 49 241 6.0 10.0 0.00 0.00 0.00 46 1011.0
20260504005203 49 265 4.0 6.0 0.00 0.00 0.00 46 1011.0
20260504004702 49 320 9.0 11.0 0.00 0.00 0.00 46 1011.0
20260504004158 49 326 5.0 6.0 0.00 0.00 0.00 45 1011.0
20260504003654 49 255 14.0 16.0 0.00 0.00 0.00 45 1010.6
20260504003151 49 270 5.0 7.0 0.00 0.00 0.00 46 1011.0
20260504002648 49 239 3.0 5.0 0.00 0.00 0.00 46 1010.6
20260504002145 49 253 4.0 6.0 0.00 0.00 0.00 45 1010.6
20260504001643 50 290 3.0 2.0 0.00 0.00 0.00 46 1011.0
20260504001139 50 319 7.0 9.0 0.00 0.00 0.00 45 1011.0
20260504000636 50 321 6.0 10.0 0.00 0.00 0.00 45 1010.6
20260504000134 50 285 6.0 9.0 0.00 0.00 0.00 45 1010.6
20260503235631 50 328 9.0 10.0 0.00 0.00 0.00 44 1010.6
20260503235128 50 345 9.0 15.0 0.00 0.00 0.00 44 1010.6
20260503234626 51 238 8.0 14.0 0.00 0.00 0.00 42 1010.6
20260503234124 51 309 4.0 5.0 0.00 0.00 0.00 41 1010.2
20260503233621 51 295 5.0 8.0 0.00 0.00 0.00 40 1010.2
20260503233116 51 322 4.0 3.0 0.00 0.00 0.00 41 1010.2
20260503232613 51 267 2.0 2.0 0.00 0.00 0.00 41 1010.2
20260503232110 51 292 4.0 9.0 0.00 0.00 0.00 40 1009.9
20260503231608 51 277 5.0 6.0 0.00 0.00 0.00 41 1009.9
20260503231104 51 246 3.0 5.0 0.00 0.00 0.00 40 1009.9
20260503230601 52 276 3.0 3.0 0.00 0.00 0.00 39 1009.9
20260503230053 53 238 4.0 5.0 0.00 0.00 0.00 38 1009.9
20260503225550 53 225 5.0 7.0 0.00 0.00 0.00 38 1009.9
20260503225045 52 256 1.0 1.0 0.00 0.00 0.00 41 1009.9
20260503224543 51 282 0.0 1.0 0.00 0.00 0.00 41 1009.9
20260503224041 51 229 2.0 2.0 0.00 0.00 0.00 41 1009.9
20260503223539 51 277 3.0 3.0 0.00 0.00 0.00 41 1009.9
20260503223034 51 278 3.0 3.0 0.00 0.00 0.00 41 1009.9
20260503222532 51 240 2.0 2.0 0.00 0.00 0.00 42 1009.9
20260503222030 51 314 3.0 3.0 0.00 0.00 0.00 42 1009.9
20260503221528 51 318 2.0 2.0 0.00 0.00 0.00 40 1010.2
20260503221025 51 305 3.0 2.0 0.00 0.00 0.00 40 1009.9
20260503220520 51 230 3.0 3.0 0.00 0.00 0.00 41 1010.2
20260503220017 51 312 3.0 3.0 0.00 0.00 0.00 40 1009.9
20260503215515 51 276 2.0 2.0 0.00 0.00 0.00 40 1010.2
20260503215012 52 267 5.0 6.0 0.00 0.00 0.00 39 1009.9
20260503214511 52 262 1.0 2.0 0.00 0.00 0.00 40 1010.2
20260503214007 51 287 3.0 3.0 0.00 0.00 0.00 39 1009.9
20260503213505 52 321 5.0 7.0 0.00 0.00 0.00 39 1009.9
20260503213001 50 308 3.0 3.0 0.00 0.00 0.00 41 1010.2
20260503212458 50 322 7.0 9.0 0.00 0.00 0.00 41 1010.2
20260503211955 50 263 4.0 5.0 0.00 0.00 0.00 41 1010.2
20260503211452 51 318 4.0 7.0 0.00 0.00 0.00 41 1010.2
20260503210948 50 259 3.0 5.0 0.00 0.00 0.00 41 1010.2
20260503210445 50 304 5.0 5.0 0.00 0.00 0.00 41 1010.2
20260503205939 50 320 5.0 7.0 0.00 0.00 0.00 43 1009.9
20260503205437 50 291 6.0 9.0 0.00 0.00 0.00 42 1010.2
20260503204933 50 323 3.0 3.0 0.00 0.00 0.00 42 1010.2
20260503204430 50 282 5.0 6.0 0.00 0.00 0.00 42 1010.6
20260503203927 48 323 6.0 8.0 0.00 0.00 0.00 44 1010.6
20260503203425 48 332 6.0 7.0 0.00 0.00 0.00 44 1010.6
20260503202921 49 302 6.0 9.0 0.00 0.00 0.00 44 1010.6
20260503202420 49 233 5.0 7.0 0.00 0.00 0.00 42 1010.2
20260503201918 49 294 6.0 7.0 0.00 0.00 0.00 42 1010.6
20260503201414 49 205 5.0 10.0 0.00 0.00 0.00 41 1010.6
20260503200912 50 354 7.0 9.0 0.00 0.00 0.00 40 1010.6
20260503200408 50 267 3.0 3.0 0.00 0.00 0.00 41 1010.6
20260503195905 51 237 5.0 7.0 0.00 0.00 0.00 39 1010.6
20260503195402 51 309 4.0 5.0 0.00 0.00 0.00 40 1010.6
20260503194859 49 290 7.0 10.0 0.00 0.00 0.00 40 1010.6
20260503194355 50 333 5.0 7.0 0.00 0.00 0.00 39 1010.6
20260503193851 50 323 5.0 5.0 0.00 0.00 0.00 39 1010.6
20260503193347 49 293 4.0 5.0 0.00 0.00 0.00 40 1010.6
20260503192843 49 287 5.0 6.0 0.00 0.00 0.00 40 1011.0
20260503192338 49 323 8.0 10.0 0.00 0.00 0.00 39 1011.0
20260503191835 50 322 7.0 10.0 0.00 0.00 0.00 38 1011.0
20260503191332 50 225 5.0 6.0 0.00 0.00 0.00 37 1010.6
20260503190829 50 300 7.0 8.0 0.00 0.00 0.00 37 1011.0
20260503190327 51 282 5.0 7.0 0.00 0.00 0.00 35 1011.0
20260503185824 51 328 4.0 6.0 0.00 0.00 0.00 37 1011.0
20260503185320 50 322 2.0 3.0 0.00 0.00 0.00 39 1011.0
20260503184819 50 301 3.0 2.0 0.00 0.00 0.00 37 1011.0
20260503184316 50 319 4.0 7.0 0.00 0.00 0.00 37 1011.0
20260503183811 49 39 4.0 6.0 0.00 0.00 0.00 38 1011.0
20260503183309 49 129 5.0 6.0 0.00 0.00 0.00 39 1011.3
20260503182806 48 241 7.0 8.0 0.00 0.00 0.00 38 1011.0
20260503182306 50 283 7.0 10.0 0.00 0.00 0.00 37 1011.0
20260503181802 49 214 2.0 2.0 0.00 0.00 0.00 40 1011.3
20260503181259 49 307 3.0 6.0 0.00 0.00 0.00 39 1011.0
20260503180755 48 326 5.0 6.0 0.00 0.00 0.00 38 1011.3
20260503180253 49 250 6.0 8.0 0.00 0.00 0.00 37 1011.3
20260503175749 49 330 6.0 11.0 0.00 0.00 0.00 36 1011.7
20260503175248 49 250 2.0 2.0 0.00 0.00 0.00 36 1011.3
20260503174743 48 277 7.0 9.0 0.00 0.00 0.00 37 1011.7
20260503174242 48 317 3.0 3.0 0.00 0.00 0.00 37 1011.7
20260503173742 48 303 8.0 10.0 0.00 0.00 0.00 39 1011.7
20260503173238 47 324 6.0 7.0 0.00 0.00 0.00 41 1011.7
20260503172735 47 309 3.0 3.0 0.00 0.00 0.00 42 1011.7
20260503172232 47 314 5.0 7.0 0.00 0.00 0.00 39 1011.7
20260503171728 46 287 5.0 6.0 0.00 0.00 0.00 42 1011.7
20260503171226 47 310 9.0 11.0 0.00 0.00 0.00 40 1011.7
20260503170723 47 317 3.0 5.0 0.00 0.00 0.00 41 1012.0
20260503170220 46 243 3.0 3.0 0.00 0.00 0.00 41 1012.0
20260503160141 45 326 9.0 11.0 0.00 0.00 0.00 39 1012.4
20260503150611 42 200 5.0 9.0 0.00 0.00 0.00 42 1013.1
20260503150108 42 306 6.0 7.0 0.00 0.00 0.00 42 1013.1
20260503131001 38 241 3.0 5.0 0.00 0.00 0.00 51 1012.8
20260503130459 39 253 9.0 11.0 0.00 0.00 0.00 52 1012.8
20260503110350 33 295 2.0 3.0 0.00 0.00 0.00 84 1012.8
20260503090229 33 273 3.0 3.0 0.00 0.00 0.00 84 1012.0
20260503081151 33 307 2.0 2.0 0.00 0.00 0.00 83 1012.0
20260503080646 33 320 2.0 3.0 0.00 0.00 0.00 83 1011.7
20260503080144 33 262 0.0 1.0 0.00 0.00 0.00 84 1012.0
20260503072620 33 311 3.0 3.0 0.00 0.00 0.00 83 1012.0
20260503072117 33 299 4.0 5.0 0.00 0.00 0.00 82 1012.0
20260503071614 33 267 3.0 3.0 0.00 0.00 0.00 82 1012.0
20260503071111 34 294 2.0 3.0 0.00 0.00 0.00 82 1012.4
20260503070608 34 273 4.0 5.0 0.00 0.00 0.00 82 1012.0
20260503070106 34 309 2.0 3.0 0.00 0.00 0.00 82 1012.0